Location: Ergnies
(50.0854°N, 2.0375°E)
Time: 11:06:37
(UTC+00:00)

SJ-12 - Pass Details

Date: 14 January 2026
Orbit: 515 x 525 km, 97.8° (Epoch: 11 February)

Event Time Altitude Azimuth Distance (km) Brightness Sun altitude
Rises 06:44:53 0° 13° (NNE) 2,677 7.2 -9.5°
Reaches altitude 10° 06:47:00 10° 13° (NNE) 1,781 6.3 -9.1°
Maximum altitude 06:50:50 84° 287° (WNW) 535 3.7 -8.6°
Drops below altitude 10° 06:54:39 10° 197° (SSW) 1,759 6.5 -8.0°
Sets 06:56:44 0° 197° (SSW) 2,641 7.4 -7.7°
